Date String (YYYY-MM-DD hh:mm:ss) UTC,Instrument flags,Ambient pressure (hPa),Sample flow (lpm),Bypass flow (lpm),Sample temperature (°C),Ambient temperature (°C),ASC tube jacket temperature (°C),LED temperature (°C),Box temperature (°C),Sample RH (%),Span deviation,Mass concentration (μg/m³),Mass concentration (μg/m³),Mass concentration (μg/m³)
DateTimeUTC,F1_M11,P_M11,Q1_M11,Q2_M11,T1_M11,T2_M11,T3_M11,T4_M11,T5_M11,U1_M11,ZSPAN_M11,X0_M11,X2_M11,X1_M11
2022-06-01 11:00:00,,0832.4,5.00,0.00,25.1,24.1,00.0,34.0,27.1,21.7,0000.0,0000.80,0000.59,0000.52
2022-06-01 11:01:00,,0832.4,4.99,0.00,25.1,24.1,00.0,34.0,27.1,21.6,0000.0,0000.76,0000.58,0000.52
2022-06-01 11:02:00,,0832.4,5.01,0.00,25.1,24.1,00.0,34.0,27.1,21.6,0000.0,0001.05,0000.59,0000.52
2022-06-01 11:03:00,,0832.4,4.99,0.00,25.1,24.1,00.0,34.0,27.1,21.5,0000.0,0001.83,0000.59,0000.52
2022-06-01 11:04:00,,0832.3,5.01,0.00,25.1,24.2,00.0,34.0,27.1,21.5,0000.0,0001.81,0000.59,0000.52
2022-06-01 11:05:00,,0832.3,5.00,0.00,25.2,24.2,00.0,34.1,27.1,21.5,0000.0,0001.87,0000.60,0000.52
2022-06-01 11:06:00,,0832.3,5.01,0.00,25.2,24.2,00.0,34.1,27.1,21.5,0000.0,0001.85,0000.59,0000.51
2022-06-01 11:07:00,,0832.3,4.99,0.00,25.2,24.2,00.0,34.1,27.1,21.5,0000.0,0001.87,0000.59,0000.51
2022-06-01 11:08:00,,0832.3,5.00,0.00,25.2,24.2,00.0,34.1,27.1,21.4,0000.0,0001.92,0000.61,0000.50
2022-06-01 11:09:00,,0832.3,5.01,0.00,25.2,24.2,00.0,34.1,27.2,21.4,0000.0,0001.91,0000.60,0000.50
2022-06-01 11:10:00,,0832.4,4.99,0.00,25.2,24.2,00.0,34.1,27.2,21.4,0000.0,0001.93,0000.61,0000.50
2022-06-01 11:11:00,,0832.4,5.01,0.00,25.2,24.2,00.0,34.1,27.2,21.4,0000.0,0001.97,0000.62,0000.50
2022-06-01 11:12:00,,0832.5,5.00,0.00,25.2,24.3,00.0,34.1,27.2,21.4,0000.0,0001.98,0000.62,0000.49
2022-06-01 11:13:00,,0832.5,5.00,0.00,25.2,24.3,00.0,34.1,27.2,21.4,0000.0,0001.70,0000.62,0000.49
2022-06-01 11:14:00,,0832.5,5.01,0.00,25.2,24.3,00.0,34.1,27.2,21.3,0000.0,0000.92,0000.60,0000.48
2022-06-01 11:15:00,,0832.6,5.00,0.00,25.2,24.3,00.0,34.1,27.2,21.3,0000.0,0000.89,0000.59,0000.48
2022-06-01 11:16:00,,0832.7,5.01,0.00,25.3,24.3,00.0,34.1,27.2,21.4,0000.0,0000.82,0000.57,0000.48
2022-06-01 11:17:00,,0832.7,4.99,0.00,25.3,24.3,00.0,34.1,27.2,21.5,0000.0,0000.88,0000.60,0000.48
2022-06-01 11:18:00,,0832.7,5.00,0.00,25.3,24.3,00.0,34.1,27.2,21.5,0000.0,0000.89,0000.60,0000.49
2022-06-01 11:19:00,,0832.7,5.00,0.00,25.3,24.3,00.0,34.1,27.2,21.5,0000.0,0000.86,0000.60,0000.49
2022-06-01 11:20:00,,0832.7,4.99,0.00,25.3,24.3,00.0,34.2,27.2,21.6,0000.0,0000.89,0000.62,0000.50
2022-06-01 11:21:00,,0832.7,5.02,0.00,25.3,24.3,00.0,34.2,27.2,21.6,0000.0,0000.91,0000.62,0000.50
2022-06-01 11:22:00,,0832.7,4.99,0.00,25.3,24.3,00.0,34.2,27.3,21.6,0000.0,0000.89,0000.61,0000.51
2022-06-01 11:23:00,,0832.7,5.00,0.00,25.3,24.3,00.0,34.2,27.3,21.7,0000.0,0000.90,0000.62,0000.51
2022-06-01 11:24:00,,0832.7,5.01,0.00,25.3,24.3,00.0,34.2,27.3,21.7,0000.0,0000.87,0000.61,0000.51
2022-06-01 11:25:00,,0832.7,4.99,0.00,25.3,24.3,00.0,34.2,27.3,21.8,0000.0,0000.91,0000.63,0000.52
2022-06-01 11:26:00,,0832.7,5.01,0.00,25.3,24.3,00.0,34.2,27.3,21.8,0000.0,0000.95,0000.65,0000.54
2022-06-01 11:27:00,,0832.8,4.99,0.00,25.3,24.4,00.0,34.2,27.3,21.9,0000.0,0000.96,0000.66,0000.54
2022-06-01 11:28:00,,0832.8,5.00,0.00,25.3,24.4,00.0,34.2,27.3,22.1,0000.0,0000.91,0000.65,0000.55
2022-06-01 11:29:00,,0832.9,4.99,0.00,25.3,24.4,00.0,34.2,27.3,22.9,0000.0,0000.93,0000.66,0000.56
2022-06-01 11:30:00,,0832.8,5.00,0.00,25.3,24.4,00.0,34.2,27.3,24.0,0000.0,0001.02,0000.68,0000.56
2022-06-01 11:31:00,,0832.7,5.00,0.00,25.3,24.4,00.0,34.2,27.3,23.0,0000.0,0001.05,0000.70,0000.57
2022-06-01 11:32:00,,0832.8,5.00,0.00,25.3,24.4,00.0,34.2,27.3,22.5,0000.0,0001.06,0000.71,0000.58
2022-06-01 11:33:00,,0832.8,5.01,0.00,25.4,24.4,00.0,34.2,27.3,22.4,0000.0,0001.09,0000.73,0000.58
2022-06-01 11:34:00,,0832.8,4.99,0.00,25.4,24.4,00.0,34.2,27.3,22.4,0000.0,0001.07,0000.73,0000.59
2022-06-01 11:35:00,,0832.8,5.01,0.00,25.4,24.4,00.0,34.3,27.3,22.3,0000.0,0001.10,0000.74,0000.59
2022-06-01 11:36:00,,0832.7,5.00,0.00,25.4,24.4,00.0,34.3,27.3,22.2,0000.0,0001.09,0000.74,0000.59
2022-06-01 11:37:00,,0832.8,5.01,0.00,25.4,24.4,00.0,34.3,27.3,22.2,0000.0,0001.07,0000.73,0000.59
2022-06-01 11:38:00,,0832.9,4.99,0.00,25.4,24.4,00.0,34.3,27.3,22.2,0000.0,0001.07,0000.72,0000.58
2022-06-01 11:39:00,,0832.9,5.01,0.00,25.4,24.4,00.0,34.3,27.3,22.1,0000.0,0001.19,0000.76,0000.58
2022-06-01 11:40:00,,0833.1,4.99,0.00,25.4,24.4,00.0,34.3,27.3,22.2,0000.0,0001.23,0000.78,0000.58
2022-06-01 11:41:00,,0833.1,5.01,0.00,25.4,24.4,00.0,34.3,27.4,22.2,0000.0,0001.15,0000.76,0000.58
2022-06-01 11:42:00,,0833.0,4.99,0.00,25.4,24.4,00.0,34.3,27.4,21.8,0000.0,0001.10,0000.73,0000.57
2022-06-01 11:43:00,,0832.9,5.00,0.00,25.4,24.4,00.0,34.3,27.4,21.6,0000.0,0001.16,0000.74,0000.56
2022-06-01 11:44:00,,0832.8,5.02,0.00,25.4,24.4,00.0,34.3,27.4,21.5,0000.0,0001.14,0000.71,0000.55
2022-06-01 11:45:00,,0832.8,4.99,0.00,25.4,24.4,00.0,34.3,27.4,21.4,0000.0,0001.15,0000.71,0000.54
2022-06-01 11:46:00,,0832.7,5.01,0.00,25.4,24.4,00.0,34.3,27.4,21.3,0000.0,0001.15,0000.70,0000.53
2022-06-01 11:47:00,,0832.7,4.99,0.00,25.4,24.4,00.0,34.3,27.4,21.2,0000.0,0001.16,0000.71,0000.53
2022-06-01 11:48:00,,0832.7,5.00,0.00,25.4,24.4,00.0,34.3,27.4,21.3,0000.0,0001.16,0000.72,0000.52
2022-06-01 11:49:00,,0832.7,5.01,0.00,25.4,24.4,00.0,34.3,27.4,21.3,0000.0,0001.16,0000.72,0000.52
2022-06-01 11:50:00,,0832.8,5.00,0.00,25.4,24.4,00.0,34.3,27.4,21.2,0000.0,0001.10,0000.70,0000.51
2022-06-01 11:51:00,,0832.7,4.99,0.00,25.4,24.4,00.0,34.3,27.4,21.6,0000.0,0001.06,0000.68,0000.51
2022-06-01 11:52:00,,0832.8,5.01,0.00,25.4,24.4,00.0,34.3,27.4,21.6,0000.0,0001.10,0000.70,0000.52
2022-06-01 11:53:00,,0832.9,4.99,0.00,25.4,24.4,00.0,34.3,27.4,21.7,0000.0,0001.14,0000.70,0000.52
2022-06-01 11:54:00,,0832.9,5.00,0.00,25.4,24.5,00.0,34.3,27.4,21.7,0000.0,0001.03,0000.68,0000.52
2022-06-01 11:55:00,,0832.8,4.99,0.00,25.4,24.5,00.0,34.3,27.4,21.6,0000.0,0001.02,0000.68,0000.52
2022-06-01 11:56:00,,0832.8,5.01,0.00,25.4,24.5,00.0,34.3,27.4,21.5,0000.0,0001.02,0000.68,0000.53
2022-06-01 11:57:00,,0832.8,4.99,0.00,25.4,24.5,00.0,34.3,27.4,21.5,0000.0,0000.99,0000.68,0000.53
2022-06-01 11:58:00,,0832.8,5.01,0.00,25.4,24.5,00.0,34.3,27.4,21.8,0000.0,0001.00,0000.67,0000.53
2022-06-01 11:59:00,,0832.8,4.99,0.00,25.4,24.5,00.0,34.3,27.4,21.8,0000.0,0000.97,0000.65,0000.53
